JY1SAT (JO-97) (43803 NORAD) Tracking and Keplerian Element Data

This shows tracking and keplerian element data for the satellite.

Feedback or suggestion? Click here.




ElementValue
Catalog43803
NameJY1SAT (JO-97)
Epoch Orbit658
Epoch Day16.85498887
Epoch Year2019
RAAN90.5658
Inclination97.7607
Eccentricity0.0016542
Argument of Perigee117.1768
Mean Anonmoly243.1141
Mean Motion14.95153041
Decay Rate-1E-07
L11 43803U 18099AX 19016.85498887 -.00000010 00000-0 43355-5 0 9996
L22 43803 97.7607 90.5658 0016542 117.1768 243.1141 14.95153041 6586

Live tracking and technical data element details for JY1SAT (JO-97) (NORAD 43803). JY1SAT (JO-97) can be tracked NOW for your location showing map with azimuth and elevation plus other details from your city location.

Track the satellite on the map from your city or location and see movement details for azimuth, elevation, latitude, longitude, range, height, and movement on the map or in text.







IsCatalogInMostPopularTable: catalog: 43803, numindb: 20
Update: records affected: 1



GetName: 43803 JY1SAT (JO-97)

Hit Count: updated at: Thu, 17 Jan 2019 15:00:02 GMT